Location: Champs
(48.8539°N, 2.6040°E)
Time: 02:32:51
(UTC+00:00)

Lacrosse 5 rocket - Pass Details

Date: 26 October 2021
Orbit: 459 x 633 km, 57.0° (Epoch: 30 November)

Event Time Altitude Azimuth Distance (km) Brightness Sun altitude
Exits shadow 04:39:22 24° 323° (NW) 1,255 2.8 -18.3°
Maximum altitude 04:40:47 28° 356° (N) 1,121 2.8 -18.0°
Drops below altitude 10° 04:44:43 10° 56° (NE) 1,976 5.0 -17.4°
Sets 04:47:19 0° 68° (ENE) 2,902 6.3 -17.0°
